"Datum/tijd (MEZT)";"rws verwachting golfhoogte";"rws verwachting deininghoogte";"golfhoogte";"deininghoogte"
2024-05-06 01:00;19;2;21;3
2024-05-06 01:10;20;2;19;3
2024-05-06 01:20;19;2;19;3
2024-05-06 01:30;19;2;19;4
2024-05-06 01:40;19;2;19;4
2024-05-06 01:50;20;2;19;4
2024-05-06 02:00;20;2;20;3
2024-05-06 02:10;20;2;21;3
2024-05-06 02:20;21;2;21;3
2024-05-06 02:30;21;2;21;3
2024-05-06 02:40;21;2;21;3
2024-05-06 02:50;21;2;21;3
2024-05-06 03:00;21;2;20;3
2024-05-06 03:10;22;2;21;3
2024-05-06 03:20;22;2;24;3
2024-05-06 03:30;22;2;23;3
2024-05-06 03:40;22;2;21;3
2024-05-06 03:50;21;2;20;3
2024-05-06 04:00;20;2;20;3
2024-05-06 04:10;20;2;21;3
2024-05-06 04:20;21;2;20;3
2024-05-06 04:30;22;2;19;3
2024-05-06 04:40;22;2;25;5
2024-05-06 04:50;22;2;27;5
2024-05-06 05:00;22;2;21;3
2024-05-06 05:10;21;2;20;3
2024-05-06 05:20;19;2;19;3
2024-05-06 05:30;19;2;17;3
2024-05-06 05:40;19;2;20;4
2024-05-06 05:50;20;2;21;3
2024-05-06 06:00;21;2;18;3
2024-05-06 06:10;21;2;22;3
2024-05-06 06:20;20;2;24;3
2024-05-06 06:30;20;2;19;3
2024-05-06 06:40;20;2;17;3
2024-05-06 06:50;19;2;18;3
2024-05-06 07:00;20;2;20;3
2024-05-06 07:10;22;2;21;3
2024-05-06 07:20;24;2;22;3
2024-05-06 07:30;25;2;28;4
2024-05-06 07:40;26;2;30;4
2024-05-06 07:50;25;2;26;4
2024-05-06 08:00;24;2;22;3
2024-05-06 08:10;21;2;21;3
2024-05-06 08:20;20;2;20;3
2024-05-06 08:30;19;2;18;3
2024-05-06 08:40;19;2;18;3
2024-05-06 08:50;19;2;19;3
2024-05-06 09:00;20;2;19;3
2024-05-06 09:10;20;2;20;4
2024-05-06 09:20;20;2;22;4
2024-05-06 09:30;20;2;21;3
2024-05-06 09:40;20;2;20;3
2024-05-06 09:50;20;2;19;3
2024-05-06 10:00;20;2;19;3
2024-05-06 10:10;20;2;20;3
2024-05-06 10:20;21;2;21;3
2024-05-06 10:30;21;2;22;3
2024-05-06 10:40;21;2;21;3
2024-05-06 10:50;22;2;21;4
2024-05-06 11:00;22;2;22;4
2024-05-06 11:10;22;2;23;3
2024-05-06 11:20;22;2;23;3
2024-05-06 11:30;25;2;20;3
2024-05-06 11:40;42;2;21;3
2024-05-06 11:50;60;2;39;3
2024-05-06 12:00;88;8;108;31
2024-05-06 12:10;119;6;112;22
2024-05-06 12:20;146;7;162;28
2024-05-06 12:30;180;7;175;30
2024-05-06 12:40;192;7;174;28
2024-05-06 12:50;175;16;277;73
2024-05-06 13:00;144;14;170;63
2024-05-06 13:10;113;4;79;12
2024-05-06 13:20;62;2;19;3
2024-05-06 13:30;32;2;20;3
2024-05-06 13:40;21;2;20;3
2024-05-06 13:50;23;2;21;4
2024-05-06 14:00;26;2;26;4
2024-05-06 14:10;28;2;29;4
2024-05-06 14:20;30;2;32;4
2024-05-06 14:30;30;2;32;4
2024-05-06 14:40;29;2;29;4
2024-05-06 14:50;28;2;28;4
2024-05-06 15:00;27;2;25;4
2024-05-06 15:10;26;2;26;4
2024-05-06 15:20;26;2;26;4
2024-05-06 15:30;26;2;25;4
2024-05-06 15:40;25;2;27;4
2024-05-06 15:50;24;2;26;4
2024-05-06 16:00;25;2;22;4
2024-05-06 16:10;24;2;22;3
2024-05-06 16:20;24;2;26;3
2024-05-06 16:30;23;2;26;3
2024-05-06 16:40;23;2;22;3
2024-05-06 16:50;23;2;21;3
2024-05-06 17:00;23;2;21;3
2024-05-06 17:10;25;2;23;4
2024-05-06 17:20;26;2;29;4
2024-05-06 17:30;27;2;29;4
2024-05-06 17:40;27;2;26;3
2024-05-06 17:50;27;2;27;3
2024-05-06 18:00;27;1;26;3
2024-05-06 18:10;28;2;25;3
2024-05-06 18:20;28;2;30;4
2024-05-06 18:30;27;2;32;5
2024-05-06 18:40;26;2;25;4
2024-05-06 18:50;25;2;23;3
2024-05-06 19:00;24;2;22;3
2024-05-06 19:10;24;2;24;3
2024-05-06 19:20;24;2;25;3
2024-05-06 19:30;25;2;24;3
2024-05-06 19:40;25;2;25;4
2024-05-06 19:50;25;2;26;4
2024-05-06 20:00;25;2;25;3
2024-05-06 20:10;26;2;24;3
2024-05-06 20:20;27;2;26;3
2024-05-06 20:30;30;2;29;4
2024-05-06 20:40;32;2;33;4
2024-05-06 20:50;34;2;36;4
2024-05-06 21:00;35;2;36;4
2024-05-06 21:10;36;2;35;4
2024-05-06 21:20;36;3;36;4
2024-05-06 21:30;36;3;37;4
2024-05-06 21:40;36;3;38;5
2024-05-06 21:50;35;3;36;5
2024-05-06 22:00;34;3;33;4
2024-05-06 22:10;33;3;31;4
2024-05-06 22:20;31;3;32;4
2024-05-06 22:30;31;2;31;4
2024-05-06 22:40;31;2;29;4
2024-05-06 22:50;31;2;30;4
2024-05-06 23:00;32;2;33;4
2024-05-06 23:10;33;2;34;3
2024-05-06 23:20;34;2;35;4
2024-05-06 23:30;34;2;35;4
2024-05-06 23:40;34;2;34;4
2024-05-06 23:50;33;2;33;3
2024-05-07 00:00;32;2;31;3
2024-05-07 00:10;32;2;31;3
2024-05-07 00:20;31;2;32;4
2024-05-07 00:30;31;2;31;4
2024-05-07 00:40;31;2;30;4
2024-05-07 00:50;31;2;31;4
2024-05-07 01:00;31;2;31;4
2024-05-07 01:10;31;2;31;3
2024-05-07 01:20;30;2;30;4
2024-05-07 01:30;30;2;30;4
2024-05-07 01:40;29;2;30;4
2024-05-07 01:50;29;2;29;3
2024-05-07 02:00;30;3;28;4
2024-05-07 02:10;30;3;29;4
2024-05-07 02:20;31;2;32;4
2024-05-07 02:30;32;3;32;4
2024-05-07 02:40;34;3;33;4
2024-05-07 02:50;35;2;35;4
2024-05-07 03:00;36;2;38;4
2024-05-07 03:10;36;2;38;4
2024-05-07 03:20;36;2;36;4
2024-05-07 03:30;36;2;35;4
2024-05-07 03:40;36;2;35;4
2024-05-07 03:50;36;2;35;4
2024-05-07 04:00;37;2;38;4
2024-05-07 04:10;37;2;38;4
2024-05-07 04:20;39;2;37;4
2024-05-07 04:30;39;2;39;4
2024-05-07 04:40;39;2;42;4
2024-05-07 04:50;39;2;41;4
2024-05-07 05:00;38;2;38;4
2024-05-07 05:10;37;2;36;4
2024-05-07 05:20;35;2;34;4
2024-05-07 05:30;34;2;34;4
2024-05-07 05:40;32;2;32;3
2024-05-07 05:50;31;2;32;4
2024-05-07 06:00;30;2;30;3
2024-05-07 06:10;29;2;28;3
2024-05-07 06:20;28;2;27;3
2024-05-07 06:30;28;3;27;3
2024-05-07 06:40;28;2;29;3
2024-05-07 06:50;28;3;28;3
2024-05-07 07:00;28;3;29;4
2024-05-07 07:10;29;3;28;3
2024-05-07 07:20;30;2;28;3
2024-05-07 07:30;31;3;30;4
2024-05-07 07:40;32;3;34;4
2024-05-07 07:50;32;3;36;4
2024-05-07 08:00;31;3;31;4
2024-05-07 08:10;30;3;28;3
2024-05-07 08:20;28;2;26;3
2024-05-07 08:30;28;2;27;3
2024-05-07 08:40;27;3;29;3
2024-05-07 08:50;28;3;28;3
2024-05-07 09:00;29;3;26;3
2024-05-07 09:10;29;3;29;4
2024-05-07 09:20;29;3;31;4
2024-05-07 09:30;29;3;29;4
2024-05-07 09:40;29;3;28;4
2024-05-07 09:50;28;3;28;4
2024-05-07 10:00;28;3;27;4
2024-05-07 10:10;29;3;28;4
2024-05-07 10:20;29;3;30;4
2024-05-07 10:30;30;3;31;4
2024-05-07 10:40;31;3;31;4
2024-05-07 10:50;31;3;31;4
2024-05-07 11:00;31;2;30;4
2024-05-07 11:10;31;3;31;5
2024-05-07 11:20;31;3;32;5
2024-05-07 11:30;32;2;31;4
2024-05-07 11:40;32;2;32;4
2024-05-07 11:50;32;3;33;5
2024-05-07 12:00;34;3;33;5
2024-05-07 12:10;35;3;33;5
2024-05-07 12:20;35;2;37;4
2024-05-07 12:30;36;2;38;4
2024-05-07 12:40;37;2;35;4
2024-05-07 12:50;36;2;37;4
2024-05-07 13:00;36;2;37;4
2024-05-07 13:10;36;2;34;4
2024-05-07 13:20;36;2;35;4
2024-05-07 13:30;36;2;36;4
2024-05-07 13:40;36;3;36;5
2024-05-07 13:50;37;3;37;5
2024-05-07 14:00;38;3;37;5
2024-05-07 14:10;39;3;38;5
2024-05-07 14:20;40;3;40;5
2024-05-07 14:30;41;3;42;5
2024-05-07 14:40;43;3;43;5
2024-05-07 14:50;43;3;44;5
2024-05-07 15:00;44;3;44;5
2024-05-07 15:10;44;3;43;5
2024-05-07 15:20;44;3;44;5
2024-05-07 15:30;44;3;44;5
2024-05-07 15:40;46;3;44;5
2024-05-07 15:50;49;3;47;5
2024-05-07 16:00;52;3;53;5
2024-05-07 16:10;56;4;55;6
2024-05-07 16:20;60;3;61;5
2024-05-07 16:30;64;3;64;5
2024-05-07 16:40;68;3;66;5
2024-05-07 16:50;69;4;73;7
2024-05-07 17:00;71;4;74;8
2024-05-07 17:10;72;4;70;8
2024-05-07 17:20;72;4;70;6
2024-05-07 17:30;72;4;74;6
2024-05-07 17:40;73;4;72;5
2024-05-07 17:50;74;4;74;5
2024-05-07 18:00;75;4;76;5
2024-05-07 18:10;74;4;75;5
2024-05-07 18:20;74;4;73;5
2024-05-07 18:30;74;5;75;5
2024-05-07 18:40;74;5;74;6
2024-05-07 18:50;74;5;74;5
2024-05-07 19:00;74;5;76;5
2024-05-07 19:10;73;5;77;5
2024-05-07 19:20;72;5;74;5
2024-05-07 19:30;71;4;75;5
2024-05-07 19:40;71;4;78;5
2024-05-07 19:50;71;4;77;5
2024-05-07 20:00;70;4;78;5
2024-05-07 20:10;69;4;;
2024-05-07 20:20;67;4;;
2024-05-07 20:30;66;4;;
2024-05-07 20:40;64;4;;
2024-05-07 20:50;63;4;;
2024-05-07 21:00;62;4;;
2024-05-07 21:10;61;4;;
2024-05-07 21:20;59;4;;
2024-05-07 21:30;58;4;;
2024-05-07 21:40;57;4;;
2024-05-07 21:50;56;4;;
2024-05-07 22:00;55;4;;
2024-05-07 22:10;55;4;;
2024-05-07 22:20;54;4;;
2024-05-07 22:30;52;4;;
2024-05-07 22:40;52;4;;
2024-05-07 22:50;52;4;;
2024-05-07 23:00;51;4;;
2024-05-07 23:10;51;4;;
2024-05-07 23:20;51;4;;
2024-05-07 23:30;50;4;;
2024-05-07 23:40;49;4;;
2024-05-07 23:50;49;4;;
2024-05-08 00:00;49;4;;
2024-05-08 00:10;49;4;;
2024-05-08 00:20;48;4;;
2024-05-08 00:30;48;4;;
2024-05-08 00:40;47;4;;
2024-05-08 00:50;46;4;;
2024-05-08 01:00;46;4;;
2024-05-08 01:10;46;4;;
2024-05-08 01:20;46;4;;
2024-05-08 01:30;46;4;;
2024-05-08 01:40;45;4;;
2024-05-08 01:50;44;4;;
2024-05-08 02:00;44;4;;
2024-05-08 02:10;44;4;;
2024-05-08 02:20;44;4;;
2024-05-08 02:30;45;4;;
2024-05-08 02:40;45;4;;
2024-05-08 02:50;44;4;;
2024-05-08 03:00;44;4;;
2024-05-08 03:10;44;4;;
2024-05-08 03:20;45;4;;
2024-05-08 03:30;45;4;;
2024-05-08 03:40;45;3;;
2024-05-08 03:50;46;3;;
2024-05-08 04:00;45;3;;
2024-05-08 04:10;45;3;;
2024-05-08 04:20;46;3;;
2024-05-08 04:30;47;3;;
2024-05-08 04:40;47;3;;
2024-05-08 04:50;47;3;;
2024-05-08 05:00;47;3;;
2024-05-08 05:10;48;3;;
2024-05-08 05:20;48;3;;
2024-05-08 05:30;48;3;;
2024-05-08 05:40;49;3;;
2024-05-08 05:50;50;3;;
2024-05-08 06:00;50;3;;
2024-05-08 06:10;50;3;;
2024-05-08 06:20;51;3;;
2024-05-08 06:30;51;3;;
2024-05-08 06:40;51;3;;
2024-05-08 06:50;52;3;;
2024-05-08 07:00;52;3;;
2024-05-08 07:10;52;3;;
2024-05-08 07:20;53;3;;
2024-05-08 07:30;53;3;;
2024-05-08 07:40;53;3;;
2024-05-08 07:50;54;3;;
2024-05-08 08:00;54;3;;
2024-05-08 08:10;54;3;;
2024-05-08 08:20;54;3;;
2024-05-08 08:30;54;3;;
2024-05-08 08:40;54;3;;
2024-05-08 08:50;54;3;;
2024-05-08 09:00;54;3;;
2024-05-08 09:10;54;3;;
2024-05-08 09:20;54;3;;
2024-05-08 09:30;54;3;;
2024-05-08 09:40;53;3;;
2024-05-08 09:50;53;3;;
2024-05-08 10:00;53;3;;
2024-05-08 10:10;53;3;;
2024-05-08 10:20;53;3;;
2024-05-08 10:30;54;3;;
2024-05-08 10:40;54;3;;
2024-05-08 10:50;54;3;;
2024-05-08 11:00;54;3;;
2024-05-08 11:10;54;3;;
2024-05-08 11:20;54;3;;
2024-05-08 11:30;54;3;;
2024-05-08 11:40;55;3;;
2024-05-08 11:50;55;3;;
2024-05-08 12:00;55;3;;
2024-05-08 12:10;55;3;;
2024-05-08 12:20;55;3;;
2024-05-08 12:30;55;3;;
2024-05-08 12:40;55;3;;
2024-05-08 12:50;55;3;;
2024-05-08 13:00;55;3;;
2024-05-08 13:10;55;3;;
2024-05-08 13:20;55;3;;
2024-05-08 13:30;56;3;;
2024-05-08 13:40;56;3;;
2024-05-08 13:50;56;3;;
2024-05-08 14:00;56;3;;
2024-05-08 14:10;56;3;;
2024-05-08 14:20;57;3;;
2024-05-08 14:30;57;2;;
2024-05-08 14:40;57;2;;
2024-05-08 14:50;58;2;;
2024-05-08 15:00;58;2;;
2024-05-08 15:10;59;2;;
2024-05-08 15:20;61;2;;
2024-05-08 15:30;62;2;;
2024-05-08 15:40;63;2;;
2024-05-08 15:50;65;2;;
2024-05-08 16:00;66;2;;
2024-05-08 16:10;67;2;;
2024-05-08 16:20;68;2;;
2024-05-08 16:30;69;2;;
2024-05-08 16:40;70;2;;
2024-05-08 16:50;71;2;;
2024-05-08 17:00;72;2;;
2024-05-08 17:10;72;2;;
2024-05-08 17:20;72;2;;
2024-05-08 17:30;72;2;;
2024-05-08 17:40;73;2;;
2024-05-08 17:50;73;2;;
2024-05-08 18:00;73;2;;
2024-05-08 18:10;73;2;;
2024-05-08 18:20;72;2;;
2024-05-08 18:30;72;2;;
2024-05-08 18:40;72;2;;
2024-05-08 18:50;71;2;;
2024-05-08 19:00;71;2;;
2024-05-08 19:10;70;2;;
2024-05-08 19:20;70;2;;
2024-05-08 19:30;69;2;;
2024-05-08 19:40;68;2;;
2024-05-08 19:50;68;2;;
2024-05-08 20:00;67;2;;
2024-05-08 20:10;66;2;;
2024-05-08 20:20;65;2;;
2024-05-08 20:30;64;2;;
2024-05-08 20:40;63;2;;
2024-05-08 20:50;62;2;;
2024-05-08 21:00;61;2;;
2024-05-08 21:10;60;2;;
2024-05-08 21:20;59;2;;
2024-05-08 21:30;58;2;;
2024-05-08 21:40;57;2;;
2024-05-08 21:50;56;2;;
2024-05-08 22:00;55;2;;
2024-05-08 22:10;54;2;;
2024-05-08 22:20;53;2;;
2024-05-08 22:30;52;2;;
2024-05-08 22:40;52;2;;
2024-05-08 22:50;51;2;;
2024-05-08 23:00;50;2;;
2024-05-08 23:10;49;2;;
2024-05-08 23:20;49;2;;
2024-05-08 23:30;48;2;;
2024-05-08 23:40;47;2;;
2024-05-08 23:50;47;2;;
2024-05-09 00:00;46;2;;
2024-05-09 00:10;46;2;;
2024-05-09 00:20;45;2;;
2024-05-09 00:30;45;2;;
2024-05-09 00:40;45;1;;
2024-05-09 00:50;44;1;;
2024-05-09 01:00;44;1;;
2024-05-09 01:10;44;1;;
2024-05-09 01:20;43;1;;
2024-05-09 01:30;43;1;;
2024-05-09 01:40;43;1;;
2024-05-09 01:50;42;1;;
2024-05-09 02:00;42;1;;
2024-05-09 02:10;42;1;;
2024-05-09 02:20;41;1;;
2024-05-09 02:30;41;1;;
2024-05-09 02:40;41;1;;
2024-05-09 02:50;40;1;;
2024-05-09 03:00;40;1;;
2024-05-09 03:10;40;1;;
2024-05-09 03:20;40;1;;
2024-05-09 03:30;40;1;;
2024-05-09 03:40;41;1;;
2024-05-09 03:50;41;1;;
2024-05-09 04:00;41;1;;
2024-05-09 04:10;41;1;;
2024-05-09 04:20;41;1;;
2024-05-09 04:30;41;1;;
2024-05-09 04:40;41;1;;
2024-05-09 04:50;41;1;;
2024-05-09 05:00;41;1;;
2024-05-09 05:10;41;1;;
2024-05-09 05:20;40;1;;
2024-05-09 05:30;40;1;;
2024-05-09 05:40;40;1;;
2024-05-09 05:50;39;1;;
2024-05-09 06:00;39;1;;
2024-05-09 06:10;39;1;;
2024-05-09 06:20;38;1;;
2024-05-09 06:30;38;1;;
2024-05-09 06:40;38;1;;
2024-05-09 06:50;37;1;;
2024-05-09 07:00;37;1;;
2024-05-09 07:10;37;1;;
2024-05-09 07:20;36;1;;
2024-05-09 07:30;36;1;;
2024-05-09 07:40;36;1;;
2024-05-09 07:50;35;1;;
2024-05-09 08:00;35;1;;
2024-05-09 08:10;35;1;;
2024-05-09 08:20;35;1;;
2024-05-09 08:30;34;1;;
2024-05-09 08:40;34;1;;
2024-05-09 08:50;34;1;;
2024-05-09 09:00;34;1;;
2024-05-09 09:10;34;1;;
2024-05-09 09:20;33;1;;
2024-05-09 09:30;33;1;;
2024-05-09 09:40;33;1;;
2024-05-09 09:50;32;1;;
2024-05-09 10:00;32;1;;
2024-05-09 10:10;32;1;;
2024-05-09 10:20;31;1;;
2024-05-09 10:30;31;1;;
2024-05-09 10:40;31;1;;
2024-05-09 10:50;30;1;;
2024-05-09 11:00;30;1;;
2024-05-09 11:10;30;1;;
2024-05-09 11:20;30;1;;
2024-05-09 11:30;30;1;;
2024-05-09 11:40;29;1;;
2024-05-09 11:50;29;1;;
2024-05-09 12:00;29;1;;
2024-05-09 12:10;29;1;;
2024-05-09 12:20;29;1;;
2024-05-09 12:30;28;1;;
2024-05-09 12:40;28;1;;
2024-05-09 12:50;28;1;;
2024-05-09 13:00;28;1;;
2024-05-09 13:10;28;1;;
2024-05-09 13:20;27;1;;
2024-05-09 13:30;27;1;;
2024-05-09 13:40;27;1;;
2024-05-09 13:50;27;1;;
2024-05-09 14:00;26;1;;
2024-05-09 14:10;25;1;;
2024-05-09 14:20;25;1;;
2024-05-09 14:30;25;1;;
2024-05-09 14:40;25;1;;
2024-05-09 14:50;25;1;;
2024-05-09 15:00;25;1;;
2024-05-09 15:10;25;1;;
2024-05-09 15:20;25;1;;
2024-05-09 15:30;25;1;;
2024-05-09 15:40;25;1;;
2024-05-09 15:50;25;1;;
2024-05-09 16:00;25;1;;
2024-05-09 16:10;25;1;;
2024-05-09 16:20;25;1;;
2024-05-09 16:30;25;1;;
2024-05-09 16:40;25;1;;
2024-05-09 16:50;25;1;;
2024-05-09 17:00;25;1;;
2024-05-09 17:10;25;1;;
2024-05-09 17:20;24;1;;
2024-05-09 17:30;24;1;;
2024-05-09 17:40;24;1;;
2024-05-09 17:50;24;1;;
2024-05-09 18:00;24;1;;
2024-05-09 18:10;23;1;;
2024-05-09 18:20;23;1;;
2024-05-09 18:30;23;1;;
2024-05-09 18:40;23;1;;
2024-05-09 18:50;22;1;;
2024-05-09 19:00;22;1;;
2024-05-09 19:10;22;1;;
2024-05-09 19:20;22;1;;
2024-05-09 19:30;22;1;;
2024-05-09 19:40;21;1;;
2024-05-09 19:50;21;1;;
2024-05-09 20:00;21;1;;
2024-05-09 20:10;20;1;;
2024-05-09 20:20;20;1;;
2024-05-09 20:30;20;1;;
2024-05-09 20:40;20;1;;
2024-05-09 20:50;19;1;;
2024-05-09 21:00;19;1;;
2024-05-09 21:10;19;1;;
2024-05-09 21:20;19;1;;
2024-05-09 21:30;19;1;;
2024-05-09 21:40;19;1;;
2024-05-09 21:50;19;1;;
2024-05-09 22:00;19;1;;
2024-05-09 22:10;19;1;;
2024-05-09 22:20;19;1;;
2024-05-09 22:30;19;1;;
2024-05-09 22:40;18;1;;
2024-05-09 22:50;18;1;;
2024-05-09 23:00;18;1;;
2024-05-09 23:10;18;1;;
2024-05-09 23:20;18;1;;
2024-05-09 23:30;18;1;;
2024-05-09 23:40;18;1;;
2024-05-09 23:50;18;1;;
2024-05-10 00:00;18;1;;
2024-05-10 00:10;18;1;;
2024-05-10 00:20;17;1;;
2024-05-10 00:30;17;1;;
2024-05-10 00:40;17;1;;
2024-05-10 00:50;17;1;;
2024-05-10 01:00;17;1;;
2024-05-10 01:10;17;1;;
2024-05-10 01:20;17;1;;
2024-05-10 01:30;17;1;;
2024-05-10 01:40;17;1;;
2024-05-10 01:50;17;1;;
2024-05-10 02:00;17;1;;
2024-05-10 02:10;17;1;;
2024-05-10 02:20;16;1;;
2024-05-10 02:30;16;1;;
2024-05-10 02:40;16;1;;
2024-05-10 02:50;16;1;;
2024-05-10 03:00;16;1;;
2024-05-10 03:10;16;1;;
2024-05-10 03:20;16;1;;
2024-05-10 03:30;16;1;;
2024-05-10 03:40;16;1;;
2024-05-10 03:50;16;1;;
2024-05-10 04:00;16;1;;
2024-05-10 04:10;16;1;;
2024-05-10 04:20;16;1;;
2024-05-10 04:30;16;1;;
2024-05-10 04:40;16;1;;
2024-05-10 04:50;16;1;;
2024-05-10 05:00;16;1;;
2024-05-10 05:10;16;1;;
2024-05-10 05:20;16;1;;
2024-05-10 05:30;16;1;;
2024-05-10 05:40;15;1;;
2024-05-10 05:50;15;1;;
2024-05-10 06:00;15;1;;
2024-05-10 06:10;15;1;;
2024-05-10 06:20;15;1;;
2024-05-10 06:30;15;1;;
2024-05-10 06:40;15;1;;
2024-05-10 06:50;15;1;;
2024-05-10 07:00;15;1;;
2024-05-10 07:10;15;1;;
2024-05-10 07:20;15;1;;
2024-05-10 07:30;15;1;;
2024-05-10 07:40;15;1;;
2024-05-10 07:50;15;1;;
2024-05-10 08:00;15;1;;
2024-05-10 08:10;15;1;;
2024-05-10 08:20;15;1;;
2024-05-10 08:30;15;1;;
2024-05-10 08:40;14;1;;
2024-05-10 08:50;14;1;;
2024-05-10 09:00;14;1;;
2024-05-10 09:10;14;1;;
2024-05-10 09:20;14;1;;
2024-05-10 09:30;14;1;;
2024-05-10 09:40;14;1;;
2024-05-10 09:50;14;1;;
2024-05-10 10:00;14;1;;
2024-05-10 10:10;14;1;;
2024-05-10 10:20;14;1;;
2024-05-10 10:30;14;1;;
2024-05-10 10:40;14;1;;
2024-05-10 10:50;13;1;;
2024-05-10 11:00;13;1;;
2024-05-10 11:10;13;1;;
2024-05-10 11:20;13;1;;
2024-05-10 11:30;13;1;;
2024-05-10 11:40;13;1;;
2024-05-10 11:50;13;1;;
2024-05-10 12:00;13;1;;
2024-05-10 12:10;13;1;;
2024-05-10 12:20;13;1;;
2024-05-10 12:30;13;1;;
2024-05-10 12:40;13;1;;
2024-05-10 12:50;13;1;;
2024-05-10 13:00;13;1;;
2024-05-10 13:10;12;1;;
2024-05-10 13:20;12;1;;
2024-05-10 13:30;12;1;;
2024-05-10 13:40;12;1;;
2024-05-10 13:50;12;1;;
2024-05-10 14:00;12;1;;
2024-05-10 14:10;12;1;;
2024-05-10 14:20;13;1;;
2024-05-10 14:30;13;1;;
2024-05-10 14:40;14;1;;
2024-05-10 14:50;14;1;;
2024-05-10 15:00;15;1;;
2024-05-10 15:10;15;1;;
2024-05-10 15:20;16;1;;
2024-05-10 15:30;16;1;;
2024-05-10 15:40;16;1;;
2024-05-10 15:50;17;1;;
2024-05-10 16:00;17;1;;
2024-05-10 16:10;18;1;;
2024-05-10 16:20;18;1;;
2024-05-10 16:30;19;1;;
2024-05-10 16:40;19;1;;
2024-05-10 16:50;20;1;;
2024-05-10 17:00;20;1;;
2024-05-10 17:10;20;1;;
2024-05-10 17:20;21;1;;
2024-05-10 17:30;21;1;;
2024-05-10 17:40;22;1;;
2024-05-10 17:50;22;1;;
2024-05-10 18:00;23;1;;
2024-05-10 18:10;23;1;;
2024-05-10 18:20;24;1;;
2024-05-10 18:30;24;1;;
2024-05-10 18:40;24;1;;
2024-05-10 18:50;25;1;;
2024-05-10 19:00;25;1;;
2024-05-10 19:10;26;1;;
2024-05-10 19:20;26;1;;
2024-05-10 19:30;27;1;;
2024-05-10 19:40;27;1;;
2024-05-10 19:50;28;1;;
2024-05-10 20:00;28;1;;
2024-05-10 20:10;28;1;;
2024-05-10 20:20;28;1;;
2024-05-10 20:30;28;1;;
2024-05-10 20:40;27;1;;
2024-05-10 20:50;27;1;;
2024-05-10 21:00;27;1;;
2024-05-10 21:10;27;1;;
2024-05-10 21:20;27;1;;
2024-05-10 21:30;27;1;;
2024-05-10 21:40;27;1;;
2024-05-10 21:50;26;1;;
2024-05-10 22:00;26;1;;
2024-05-10 22:10;26;1;;
2024-05-10 22:20;26;1;;
2024-05-10 22:30;26;1;;
2024-05-10 22:40;26;1;;
2024-05-10 22:50;26;1;;
2024-05-10 23:00;26;1;;
2024-05-10 23:10;25;1;;
2024-05-10 23:20;25;1;;
2024-05-10 23:30;25;1;;
2024-05-10 23:40;25;1;;
2024-05-10 23:50;25;1;;
2024-05-11 00:00;25;1;;
2024-05-11 00:10;25;1;;
2024-05-11 00:20;25;1;;
2024-05-11 00:30;24;1;;
2024-05-11 00:40;24;1;;
2024-05-11 00:50;24;1;;
2024-05-11 01:00;24;1;;
2024-05-11 01:10;24;1;;
2024-05-11 01:20;24;1;;
2024-05-11 01:30;24;1;;
2024-05-11 01:40;23;1;;
2024-05-11 01:50;23;1;;
2024-05-11 02:00;23;1;;
2024-05-11 02:10;23;1;;
2024-05-11 02:20;23;1;;
2024-05-11 02:30;23;1;;
2024-05-11 02:40;23;1;;
2024-05-11 02:50;23;1;;
2024-05-11 03:00;22;1;;
2024-05-11 03:10;22;1;;
2024-05-11 03:20;22;1;;
2024-05-11 03:30;22;1;;
2024-05-11 03:40;22;1;;
2024-05-11 03:50;22;1;;
2024-05-11 04:00;22;1;;
2024-05-11 04:10;21;1;;
2024-05-11 04:20;21;1;;
2024-05-11 04:30;21;1;;
2024-05-11 04:40;21;1;;
2024-05-11 04:50;21;1;;
2024-05-11 05:00;21;1;;
2024-05-11 05:10;21;1;;
2024-05-11 05:20;20;1;;
2024-05-11 05:30;20;1;;
2024-05-11 05:40;20;1;;
2024-05-11 05:50;20;1;;
2024-05-11 06:00;20;1;;
2024-05-11 06:10;20;1;;
2024-05-11 06:20;20;1;;
2024-05-11 06:30;20;1;;
2024-05-11 06:40;19;1;;
2024-05-11 06:50;19;1;;
2024-05-11 07:00;19;1;;
2024-05-11 07:10;19;1;;
2024-05-11 07:20;19;1;;
2024-05-11 07:30;19;1;;
2024-05-11 07:40;19;1;;
2024-05-11 07:50;18;1;;
2024-05-11 08:00;18;1;;
2024-05-11 08:10;18;2;;
2024-05-11 08:20;18;2;;
2024-05-11 08:30;18;2;;
2024-05-11 08:40;18;2;;
2024-05-11 08:50;17;2;;
2024-05-11 09:00;17;2;;
2024-05-11 09:10;17;2;;
2024-05-11 09:20;17;2;;
2024-05-11 09:30;17;2;;
2024-05-11 09:40;16;2;;
2024-05-11 09:50;16;2;;
2024-05-11 10:00;16;2;;
2024-05-11 10:10;16;2;;
2024-05-11 10:20;16;2;;
2024-05-11 10:30;16;3;;
2024-05-11 10:40;15;3;;
2024-05-11 10:50;15;3;;
2024-05-11 11:00;15;3;;
2024-05-11 11:10;15;3;;
2024-05-11 11:20;15;3;;
2024-05-11 11:30;14;3;;
2024-05-11 11:40;14;3;;
2024-05-11 11:50;14;3;;
2024-05-11 12:00;14;3;;
2024-05-11 12:10;14;3;;
2024-05-11 12:20;14;3;;
2024-05-11 12:30;13;3;;
2024-05-11 12:40;13;3;;
2024-05-11 12:50;13;4;;
2024-05-11 13:00;13;4;;
2024-05-11 13:10;13;4;;
2024-05-11 13:20;12;4;;
2024-05-11 13:30;12;4;;
2024-05-11 13:40;12;4;;
2024-05-11 13:50;12;4;;
2024-05-11 14:00;12;4;;
2024-05-11 14:10;12;4;;
2024-05-11 14:20;12;4;;
2024-05-11 14:30;13;4;;
2024-05-11 14:40;13;4;;
2024-05-11 14:50;13;4;;
2024-05-11 15:00;13;5;;
2024-05-11 15:10;14;5;;
2024-05-11 15:20;14;5;;
2024-05-11 15:30;14;5;;
2024-05-11 15:40;14;5;;
2024-05-11 15:50;15;5;;
2024-05-11 16:00;15;5;;
2024-05-11 16:10;15;5;;
2024-05-11 16:20;15;5;;
2024-05-11 16:30;16;5;;
2024-05-11 16:40;16;5;;
2024-05-11 16:50;16;5;;
2024-05-11 17:00;17;6;;
2024-05-11 17:10;17;6;;
2024-05-11 17:20;17;6;;
2024-05-11 17:30;17;6;;
2024-05-11 17:40;18;6;;
2024-05-11 17:50;18;6;;
2024-05-11 18:00;18;6;;
2024-05-11 18:10;18;6;;
2024-05-11 18:20;19;6;;
2024-05-11 18:30;19;6;;
2024-05-11 18:40;19;6;;
2024-05-11 18:50;20;6;;
2024-05-11 19:00;20;7;;
2024-05-11 19:10;20;7;;
2024-05-11 19:20;20;7;;
2024-05-11 19:30;21;7;;
2024-05-11 19:40;21;7;;
2024-05-11 19:50;21;7;;
2024-05-11 20:00;21;7;;
2024-05-11 20:10;22;7;;
2024-05-11 20:20;22;7;;
2024-05-11 20:30;22;7;;
2024-05-11 20:40;23;7;;
2024-05-11 20:50;23;7;;
2024-05-11 21:00;23;7;;
2024-05-11 21:10;24;7;;
2024-05-11 21:20;24;7;;
2024-05-11 21:30;24;7;;
2024-05-11 21:40;25;7;;
2024-05-11 21:50;25;7;;
2024-05-11 22:00;25;7;;
2024-05-11 22:10;26;7;;
2024-05-11 22:20;26;7;;
2024-05-11 22:30;26;7;;
2024-05-11 22:40;27;7;;
2024-05-11 22:50;27;7;;
2024-05-11 23:00;27;8;;
2024-05-11 23:10;27;8;;
2024-05-11 23:20;28;8;;
2024-05-11 23:30;28;8;;
2024-05-11 23:40;28;8;;
2024-05-11 23:50;29;8;;
2024-05-12 00:00;29;8;;
2024-05-12 00:10;29;8;;
2024-05-12 00:20;30;8;;
2024-05-12 00:30;30;8;;
2024-05-12 00:40;30;8;;
2024-05-12 00:50;31;8;;
2024-05-12 01:00;31;8;;
2024-05-12 01:10;31;8;;
2024-05-12 01:20;32;8;;
2024-05-12 01:30;32;8;;
2024-05-12 01:40;32;8;;
2024-05-12 01:50;33;8;;
2024-05-12 02:00;33;8;;
2024-05-12 02:10;33;8;;
2024-05-12 02:20;34;8;;
2024-05-12 02:30;34;8;;
2024-05-12 02:40;35;8;;
2024-05-12 02:50;35;8;;
2024-05-12 03:00;35;8;;
2024-05-12 03:10;36;8;;
2024-05-12 03:20;36;8;;
2024-05-12 03:30;36;8;;
2024-05-12 03:40;37;8;;
2024-05-12 03:50;37;8;;
2024-05-12 04:00;38;8;;
2024-05-12 04:10;38;8;;
2024-05-12 04:20;38;8;;
2024-05-12 04:30;39;8;;
2024-05-12 04:40;39;8;;
2024-05-12 04:50;40;8;;
2024-05-12 05:00;40;8;;
2024-05-12 05:10;40;7;;
2024-05-12 05:20;41;7;;
2024-05-12 05:30;41;7;;
2024-05-12 05:40;42;7;;
2024-05-12 05:50;42;7;;
2024-05-12 06:00;42;7;;
2024-05-12 06:10;43;7;;
2024-05-12 06:20;43;7;;
2024-05-12 06:30;43;7;;
2024-05-12 06:40;44;7;;
2024-05-12 06:50;44;7;;
2024-05-12 07:00;45;7;;
2024-05-12 07:10;45;7;;
2024-05-12 07:20;45;7;;
2024-05-12 07:30;46;7;;
2024-05-12 07:40;46;7;;
2024-05-12 07:50;47;7;;
2024-05-12 08:00;47;7;;
2024-05-12 08:10;47;7;;
2024-05-12 08:20;46;7;;
2024-05-12 08:30;46;7;;
2024-05-12 08:40;45;7;;
2024-05-12 08:50;45;7;;
2024-05-12 09:00;44;7;;
2024-05-12 09:10;44;7;;
2024-05-12 09:20;43;7;;
2024-05-12 09:30;43;7;;
2024-05-12 09:40;43;7;;
2024-05-12 09:50;42;7;;
2024-05-12 10:00;42;7;;
2024-05-12 10:10;41;7;;
2024-05-12 10:20;41;7;;
2024-05-12 10:30;40;7;;
2024-05-12 10:40;40;7;;